EN

Hourly Weather Dzieglewo

Today, 21 October, Wednesday

Time Temperature Precipitation Wind Pressure Humidity
00:00 +9°C° 0 mm 5 mps 755 mmHg 69%
01:00 +9°C° 0 mm 5 mps 754 mmHg 67%
02:00 +9°C° 0 mm 5 mps 754 mmHg 67%
03:00 +9°C° 0 mm 5 mps 753 mmHg 68%
04:00 +9°C° 0 mm 5 mps 753 mmHg 68%
05:00 +9°C° 0 mm 5 mps 753 mmHg 68%
06:00 +9°C° 0 mm 5 mps 753 mmHg 68%
07:00 +10°C° 0 mm 4 mps 753 mmHg 68%
08:00 +11°C° 0 mm 4 mps 753 mmHg 68%
09:00 +11°C° 0 mm 4 mps 753 mmHg 68%
10:00 +11°C° 0 mm 4 mps 753 mmHg 67%
11:00 +12°C° 0 mm 3 mps 753 mmHg 67%
12:00 +12°C° 0 mm 3 mps 753 mmHg 68%
13:00 +12°C° 0 mm 3 mps 753 mmHg 68%
14:00 +12°C° 0 mm 3 mps 753 mmHg 68%
15:00 +12°C° 0 mm 3 mps 752 mmHg 68%
16:00 +12°C° 0 mm 4 mps 752 mmHg 69%
17:00 +12°C° 0 mm 4 mps 752 mmHg 71%
18:00 +11°C° 0 mm 3 mps 752 mmHg 73%
19:00 +11°C° 0 mm 3 mps 753 mmHg 76%
20:00 +11°C° 0 mm 4 mps 752 mmHg 77%
21:00 +11°C° 0 mm 4 mps 752 mmHg 77%
22:00 +11°C° 0 mm 4 mps 752 mmHg 78%
23:00 +11°C° 0 mm 4 mps 752 mmHg 77%

Tomorrow, 22 October, Thursday

Time Temperature Precipitation Wind Pressure Humidity
00:00 +11°C° 0 mm 4 mps 753 mmHg 77%
01:00 +11°C° 0 mm 4 mps 753 mmHg 76%
02:00 +11°C° 0 mm 4 mps 753 mmHg 76%
03:00 +11°C° 0 mm 4 mps 752 mmHg 76%
04:00 +10°C° 0 mm 5 mps 752 mmHg 76%
05:00 +10°C° 0 mm 5 mps 752 mmHg 76%
06:00 +10°C° 0 mm 5 mps 753 mmHg 76%
07:00 +10°C° 0 mm 5 mps 753 mmHg 76%
08:00 +13°C° 0 mm 5 mps 753 mmHg 71%
09:00 +14°C° 0 mm 6 mps 753 mmHg 67%
10:00 +16°C° 0 mm 6 mps 754 mmHg 62%
11:00 +17°C° 0 mm 6 mps 754 mmHg 61%
12:00 +17°C° 0 mm 5 mps 754 mmHg 60%
13:00 +19°C° 0 mm 5 mps 754 mmHg 59%
14:00 +18°C° 0 mm 4 mps 753 mmHg 63%
15:00 +18°C° 0 mm 4 mps 753 mmHg 67%
16:00 +17°C° 0 mm 3 mps 753 mmHg 71%
17:00 +16°C° 0 mm 3 mps 753 mmHg 73%
18:00 +16°C° 0 mm 3 mps 753 mmHg 74%
19:00 +14°C° 0 mm 3 mps 753 mmHg 76%
20:00 +14°C° 0 mm 3 mps 753 mmHg 77%
21:00 +14°C° 0 mm 3 mps 753 mmHg 78%
22:00 +14°C° 0 mm 3 mps 753 mmHg 79%
23:00 +14°C° 0 mm 3 mps 753 mmHg 80%

Day after tomorrow, 23 October, Friday

Time Temperature Precipitation Wind Pressure Humidity
00:00 +13°C° 0 mm 3 mps 753 mmHg 81%
01:00 +13°C° 0 mm 3 mps 753 mmHg 82%
02:00 +13°C° 0 mm 3 mps 753 mmHg 81%
03:00 +13°C° 0 mm 3 mps 752 mmHg 80%
04:00 +13°C° 0 mm 3 mps 752 mmHg 79%
05:00 +13°C° 0 mm 4 mps 752 mmHg 78%
06:00 +13°C° 0 mm 4 mps 752 mmHg 78%
07:00 +13°C° 0 mm 4 mps 751 mmHg 78%
08:00 +14°C° 0 mm 4 mps 751 mmHg 76%
09:00 +14°C° 0 mm 5 mps 751 mmHg 74%
10:00 +15°C° 0 mm 5 mps 751 mmHg 72%
11:00 +16°C° 0 mm 5 mps 751 mmHg 70%
12:00 +17°C° 0 mm 5 mps 751 mmHg 69%
13:00 +17°C° 0 mm 5 mps 750 mmHg 67%
14:00 +18°C° 0 mm 4 mps 750 mmHg 71%
15:00 +17°C° 0 mm 3 mps 750 mmHg 75%
16:00 +16°C° 0 mm 2 mps 750 mmHg 79%
17:00 +16°C° 0.1 mm 2 mps 750 mmHg 82%
18:00 +15°C° 0.1 mm 2 mps 750 mmHg 86%
19:00 +15°C° 0.1 mm 2 mps 750 mmHg 89%
20:00 +15°C° 0 mm 2 mps 750 mmHg 89%
21:00 +13°C° 0 mm 3 mps 750 mmHg 90%
22:00 +13°C° 0 mm 3 mps 750 mmHg 90%
23:00 +13°C° 0.2 mm 3 mps 750 mmHg 90%

24 October, Saturday

Time Temperature Precipitation Wind Pressure Humidity
00:00 +13°C° 0.2 mm 4 mps 750 mmHg 91%
01:00 +13°C° 0.2 mm 4 mps 750 mmHg 91%
02:00 +13°C° 0.1 mm 4 mps 750 mmHg 91%
03:00 +13°C° 0.1 mm 4 mps 750 mmHg 91%
04:00 +12°C° 0.1 mm 4 mps 750 mmHg 92%
05:00 +12°C° 0.1 mm 4 mps 750 mmHg 92%
06:00 +12°C° 0.1 mm 5 mps 750 mmHg 91%
07:00 +12°C° 0.1 mm 5 mps 751 mmHg 91%
08:00 +12°C° 0 mm 5 mps 751 mmHg 85%
09:00 +13°C° 0 mm 6 mps 751 mmHg 78%
10:00 +13°C° 0 mm 6 mps 751 mmHg 72%
11:00 +13°C° 0.2 mm 6 mps 751 mmHg 71%
12:00 +12°C° 0.2 mm 7 mps 752 mmHg 70%
13:00 +12°C° 0.2 mm 7 mps 752 mmHg 69%
14:00 +12°C° 0.1 mm 7 mps 752 mmHg 68%
15:00 +11°C° 0.1 mm 6 mps 752 mmHg 67%
16:00 +11°C° 0.1 mm 6 mps 753 mmHg 66%
17:00 +10°C° 0 mm 5 mps 753 mmHg 69%
18:00 +10°C° 0 mm 4 mps 754 mmHg 72%
19:00 +8°C° 0 mm 4 mps 755 mmHg 74%
20:00 +9°C° 0 mm 3 mps 755 mmHg 77%
21:00 +8°C° 0 mm 3 mps 755 mmHg 79%
22:00 +8°C° 0 mm 3 mps 756 mmHg 82%
23:00 +7°C° 0 mm 3 mps 756 mmHg 82%

25 October, Sunday

Time Temperature Precipitation Wind Pressure Humidity
00:00 +7°C° 0 mm 2 mps 756 mmHg 83%
01:00 +7°C° 0 mm 2 mps 756 mmHg 84%
02:00 +7°C° 0 mm 2 mps 756 mmHg 84%
03:00 +6°C° 0 mm 2 mps 756 mmHg 85%
04:00 +6°C° 0 mm 2 mps 756 mmHg 85%
05:00 +6°C° 0 mm 2 mps 756 mmHg 85%
06:00 +6°C° 0 mm 2 mps 756 mmHg 85%
07:00 +6°C° 0 mm 2 mps 756 mmHg 85%
08:00 +8°C° 0 mm 3 mps 755 mmHg 80%
09:00 +10°C° 0 mm 3 mps 755 mmHg 74%
10:00 +12°C° 0 mm 4 mps 755 mmHg 69%
11:00 +13°C° 0 mm 4 mps 755 mmHg 67%
12:00 +14°C° 0 mm 4 mps 754 mmHg 66%
13:00 +15°C° 0 mm 4 mps 754 mmHg 64%
14:00 +14°C° 0 mm 4 mps 754 mmHg 68%
15:00 +13°C° 0 mm 3 mps 753 mmHg 71%
16:00 +13°C° 0 mm 3 mps 753 mmHg 75%
17:00 +12°C° 0 mm 3 mps 753 mmHg 77%
18:00 +11°C° 0 mm 3 mps 753 mmHg 79%
19:00 +11°C° 0 mm 4 mps 753 mmHg 81%
20:00 +11°C° 0 mm 4 mps 753 mmHg 83%
21:00 +10°C° 0 mm 4 mps 753 mmHg 84%
22:00 +10°C° 0 mm 4 mps 753 mmHg 85%
23:00 +10°C° 0 mm 4 mps 752 mmHg 87%

26 October, Monday

Time Temperature Precipitation Wind Pressure Humidity
00:00 +10°C° 0 mm 4 mps 752 mmHg 88%
01:00 +10°C° 0 mm 3 mps 752 mmHg 90%
02:00 +9°C° 0 mm 3 mps 752 mmHg 90%
03:00 +9°C° 0 mm 3 mps 752 mmHg 91%
04:00 +9°C° 0 mm 3 mps 751 mmHg 91%
05:00 +8°C° 0 mm 3 mps 751 mmHg 92%
06:00 +8°C° 0 mm 3 mps 751 mmHg 92%
07:00 +8°C° 0 mm 3 mps 751 mmHg 93%
08:00 +9°C° 0 mm 3 mps 751 mmHg 87%
09:00 +11°C° 0 mm 3 mps 751 mmHg 82%
10:00 +12°C° 0 mm 3 mps 751 mmHg 77%
11:00 +13°C° 0 mm 3 mps 751 mmHg 74%
12:00 +14°C° 0 mm 3 mps 750 mmHg 70%
13:00 +16°C° 0 mm 3 mps 750 mmHg 67%
14:00 +14°C° 0 mm 3 mps 750 mmHg 69%
15:00 +13°C° 0 mm 3 mps 750 mmHg 72%
16:00 +13°C° 0 mm 3 mps 749 mmHg 75%
17:00 +13°C° 0 mm 3 mps 749 mmHg 76%
18:00 +13°C° 0 mm 3 mps 749 mmHg 77%
19:00 +13°C° 0 mm 3 mps 749 mmHg 78%
20:00 +13°C° 0.1 mm 3 mps 749 mmHg 79%
21:00 +13°C° 0.1 mm 3 mps 749 mmHg 80%
22:00 +13°C° 0.1 mm 3 mps 749 mmHg 82%
23:00 +13°C° 0.2 mm 3 mps 749 mmHg 84%

27 October, Tuesday

Time Temperature Precipitation Wind Pressure Humidity
00:00 +12°C° 0.2 mm 3 mps 749 mmHg 86%
01:00 +12°C° 0.2 mm 3 mps 749 mmHg 88%
02:00 +12°C° 0.1 mm 3 mps 750 mmHg 88%
03:00 +12°C° 0.1 mm 3 mps 750 mmHg 88%
04:00 +12°C° 0.1 mm 3 mps 750 mmHg 88%
05:00 +13°C° 0 mm 2 mps 750 mmHg 88%
06:00 +13°C° 0 mm 2 mps 750 mmHg 87%
07:00 +13°C° 0 mm 2 mps 751 mmHg 87%
08:00 +13°C° 0 mm 2 mps 751 mmHg 83%
09:00 +14°C° 0 mm 2 mps 751 mmHg 79%
10:00 +15°C° 0 mm 2 mps 752 mmHg 75%
11:00 +16°C° 0 mm 2 mps 752 mmHg 72%
12:00 +16°C° 0 mm 1 mps 752 mmHg 70%
13:00 +18°C° 0 mm 1 mps 752 mmHg 68%
14:00 +16°C° 0 mm 1 mps 752 mmHg 71%
15:00 +15°C° 0 mm 1 mps 753 mmHg 74%
16:00 +15°C° 0 mm 1 mps 753 mmHg 78%
17:00 +14°C° 0 mm 1 mps 753 mmHg 81%
18:00 +13°C° 0 mm 1 mps 754 mmHg 84%
19:00 +13°C° 0 mm 1 mps 754 mmHg 87%
20:00 +13°C° 0 mm 1 mps 754 mmHg 88%
21:00 +12°C° 0 mm 1 mps 755 mmHg 89%
22:00 +12°C° 0 mm 1 mps 755 mmHg 90%
23:00 +12°C° 0 mm 1 mps 756 mmHg 91%
Show more